Flag for U.S.A. Weather past 2 weeks in Little Rock, Arkansas, U.S.A.

Now
52 °F

Light rain. Fog.


Feels Like: 49 °F
Forecast: 44 / 56 °F
Wind: 9 mph from Southeast

Location: Adams Field

Current Time: Dec 26, 2014 at 10:40:42 PM

Latest Report: Dec 26, 2014 at 9:02 PM


Visibility: 2 mi

Pressure: 30.08 "Hg

Humidity: 88%

Dew point: 48 °F

Location of Little RockLocation

Historic Weather in Little Rock — Graph

°F

Little Rock temperature yesterday

Maximum temperature yesterday: 59 °F (at 1:53 PM)
Minimum temperature yesterday: 30 °F (at 4:53 AM)
Average temperature yesterday: 44 °F

Past Weeks' High & Low Weather Summary

 TemperatureHumidityPressure
High71 °F (Dec 15, 12:53 PM)93% (Dec 13, 5:53 AM)30.43 "Hg (Dec 13, 5:53 AM)
Low30 °F (Dec 25, 4:53 AM)31% (Dec 15, 2:53 PM)29.58 "Hg (Dec 22, 2:53 PM)
Average47 °F73%30.10 "Hg
* Reported Dec 11 9:53 PM — Dec 26 9:02 PM, Little Rock, Weather by CustomWeather, © 2014

Note: Actual official high and low records may vary slightly from our data, if they occured in-between our weather recording intervals... More about our weather records

Advertising

Little Rock weather history for previous 24 hours

 ConditionsComfort  
Time TempWeatherWind HumidityBarometerVisibility
9:02 PM
Dec 26
52 °FLight rain. Fog.9 mph88%30.08 "Hg2 mi
8:53 PM52 °FLight rain. Fog.9 mph89%30.09 "Hg3 mi
7:53 PM52 °FLight rain. Low clouds.9 mph89%30.09 "Hg7 mi
6:53 PM53 °FLight rain. Fog.8 mph83%30.09 "Hg5 mi
5:53 PM53 °FLight rain. Mostly cloudy.9 mph80%30.08 "Hg7 mi
4:53 PM53 °FMostly cloudy.9 mph80%30.07 "Hg10 mi
3:59 PM52 °FLight rain. Fog.7 mph82%30.07 "Hg6 mi
2:53 PM54 °FMostly cloudy.7 mph72%30.09 "Hg10 mi
1:53 PM55 °FOvercast.8 mph59%30.10 "Hg10 mi
12:53 PM54 °FOvercast.7 mph59%30.12 "Hg10 mi
11:53 AM52 °FOvercast.6 mph61%30.16 "Hg10 mi
10:53 AM49 °FOvercast.6 mph66%30.19 "Hg10 mi
9:53 AM47 °FMostly cloudy.6 mph71%30.20 "Hg10 mi
8:53 AM45 °FOvercast.7 mph74%30.18 "Hg10 mi
7:53 AM44 °FMostly cloudy.3 mph79%30.18 "Hg10 mi
6:53 AM41 °FPassing clouds.3 mph82%30.16 "Hg10 mi
5:53 AM43 °FPassing clouds.3 mph76%30.16 "Hg10 mi
4:53 AM41 °FPassing clouds.No wind82%30.14 "Hg10 mi
3:53 AM40 °FPassing clouds.No wind80%30.14 "Hg10 mi
2:53 AM44 °FPassing clouds.3 mph73%30.14 "Hg10 mi
1:53 AM43 °FClear.3 mph74%30.12 "Hg10 mi
12:53 AM45 °FClear.9 mph68%30.11 "Hg10 mi
11:53 PM
Dec 25
47 °FPassing clouds.10 mph64%30.11 "Hg10 mi
10:53 PM48 °FPassing clouds.12 mph61%30.10 "Hg10 mi
Weather by CustomWeather, © 2014

See weather overviewHow to use our weather pages